Time,TemperatureF,DewpointF,PressureIn,WindDirection,WindDirectionDegrees,WindSpeedMPH,WindSpeedGustMPH,Humidity,HourlyPrecipIn,Conditions,Clouds,dailyrainin,SoftwareType,DateUTC
2013-10-09 00:01:00,62.3,52.8,30.10,NNE,30,0.0,-999.0,71,0.00,,,0.00,Wunderground v.1.12,2013-10-09 04:01:00,
2013-10-09 00:03:00,62.3,52.8,30.10,NNE,19,0.0,-999.0,71,0.00,,,0.00,Wunderground v.1.12,2013-10-09 04:03:00,
2013-10-09 00:05:00,62.1,52.6,30.10,NNE,22,0.0,-999.0,71,0.00,,,0.00,Wunderground v.1.12,2013-10-09 04:05:00,
2013-10-09 00:06:00,62.1,52.6,30.10,SSE,150,0.0,-999.0,71,0.00,,,0.00,Wunderground v.1.12,2013-10-09 04:06:00,
2013-10-09 00:11:00,62.0,52.5,30.09,NE,34,0.0,-999.0,71,0.00,,,0.00,Wunderground v.1.12,2013-10-09 04:11:00,
2013-10-09 00:13:00,62.0,52.5,30.09,NE,34,0.0,-999.0,71,0.00,,,0.00,Wunderground v.1.12,2013-10-09 04:13:00,
2013-10-09 00:18:00,61.8,52.3,30.09,NNE,33,0.0,-999.0,71,0.00,,,0.00,Wunderground v.1.12,2013-10-09 04:18:00,
2013-10-09 00:24:00,61.8,52.3,30.09,NNE,33,0.0,-999.0,71,0.00,,,0.00,Wunderground v.1.12,2013-10-09 04:24:00,
2013-10-09 00:30:00,61.6,52.1,30.09,NE,34,0.0,-999.0,71,0.00,,,0.00,Wunderground v.1.12,2013-10-09 04:30:00,
2013-10-09 00:36:00,61.5,52.0,30.09,NNE,22,0.0,-999.0,71,0.00,,,0.00,Wunderground v.1.12,2013-10-09 04:36:00,
2013-10-09 00:41:00,61.5,52.0,30.09,NNE,22,0.0,-999.0,71,0.00,,,0.00,Wunderground v.1.12,2013-10-09 04:41:00,
2013-10-09 00:47:00,61.3,52.2,30.09,NNE,22,0.0,-999.0,72,0.00,,,0.00,Wunderground v.1.12,2013-10-09 04:47:00,
2013-10-09 00:53:00,61.3,52.2,30.09,NNE,29,0.0,-999.0,72,0.00,,,0.00,Wunderground v.1.12,2013-10-09 04:53:00,
2013-10-09 00:58:00,61.2,52.1,30.09,NE,36,0.0,-999.0,72,0.00,,,0.00,Wunderground v.1.12,2013-10-09 04:58:00,
2013-10-09 01:04:00,61.2,52.1,30.09,NNE,33,0.0,-999.0,72,0.00,,,0.00,Wunderground v.1.12,2013-10-09 05:04:00,
2013-10-09 01:09:00,61.0,51.9,30.09,NE,37,0.0,-999.0,72,0.00,,,0.00,Wunderground v.1.12,2013-10-09 05:09:00,
2013-10-09 01:15:00,61.0,51.9,30.09,NNE,33,0.0,-999.0,72,0.00,,,0.00,Wunderground v.1.12,2013-10-09 05:15:00,
2013-10-09 01:20:00,61.0,51.9,30.09,NNE,30,0.0,-999.0,72,0.00,,,0.00,Wunderground v.1.12,2013-10-09 05:20:00,
2013-10-09 01:26:00,61.0,51.9,30.09,NNE,31,0.0,-999.0,72,0.00,,,0.00,Wunderground v.1.12,2013-10-09 05:26:00,
2013-10-09 01:32:00,61.0,51.9,30.09,SW,215,0.0,-999.0,72,0.00,,,0.00,Wunderground v.1.12,2013-10-09 05:32:00,
2013-10-09 01:38:00,60.9,51.8,30.09,SSE,149,0.0,-999.0,72,0.00,,,0.00,Wunderground v.1.12,2013-10-09 05:38:00,
2013-10-09 01:43:00,60.9,51.8,30.09,ENE,65,0.0,-999.0,72,0.00,,,0.00,Wunderground v.1.12,2013-10-09 05:43:00,
2013-10-09 01:49:00,60.7,51.2,30.09,West,270,0.0,-999.0,71,0.00,,,0.00,Wunderground v.1.12,2013-10-09 05:49:00,
2013-10-09 01:55:00,60.5,51.0,30.09,West,270,0.0,-999.0,71,0.00,,,0.00,Wunderground v.1.12,2013-10-09 05:55:00,
2013-10-09 02:00:00,60.5,51.0,30.09,West,270,0.0,-999.0,71,0.00,,,0.00,Wunderground v.1.12,2013-10-09 06:00:00,
2013-10-09 02:05:00,60.4,51.0,30.09,WNW,283,0.0,-999.0,71,0.00,,,0.00,Wunderground v.1.12,2013-10-09 06:05:00,
2013-10-09 02:10:00,60.4,51.0,30.09,WNW,283,0.0,-999.0,71,0.00,,,0.00,Wunderground v.1.12,2013-10-09 06:10:00,
2013-10-09 02:15:00,60.2,50.8,30.09,WNW,283,0.0,-999.0,71,0.00,,,0.00,Wunderground v.1.12,2013-10-09 06:15:00,
2013-10-09 02:20:00,60.1,50.7,30.09,NW,305,0.0,-999.0,71,0.00,,,0.00,Wunderground v.1.12,2013-10-09 06:20:00,
2013-10-09 02:25:00,59.9,50.8,30.10,NW,305,0.0,-999.0,72,0.00,,,0.00,Wunderground v.1.12,2013-10-09 06:25:00,
2013-10-09 02:30:00,59.8,50.8,30.10,NW,305,0.0,-999.0,72,0.00,,,0.00,Wunderground v.1.12,2013-10-09 06:30:00,
2013-10-09 02:35:00,59.8,50.8,30.10,NW,305,0.0,-999.0,72,0.00,,,0.00,Wunderground v.1.12,2013-10-09 06:35:00,
2013-10-09 02:40:00,59.6,50.6,30.10,NW,305,0.0,-999.0,72,0.00,,,0.00,Wunderground v.1.12,2013-10-09 06:40:00,
2013-10-09 02:45:00,59.5,50.8,30.10,NW,305,0.0,-999.0,73,0.00,,,0.00,Wunderground v.1.12,2013-10-09 06:45:00,
2013-10-09 02:50:00,59.3,50.6,30.10,NW,305,0.0,-999.0,73,0.00,,,0.00,Wunderground v.1.12,2013-10-09 06:50:00,
2013-10-09 02:55:00,59.2,50.5,30.11,NW,305,0.0,-999.0,73,0.00,,,0.00,Wunderground v.1.12,2013-10-09 06:55:00,
2013-10-09 03:00:00,59.0,50.4,30.11,NW,305,0.0,-999.0,73,0.00,,,0.00,Wunderground v.1.12,2013-10-09 07:00:00,
2013-10-09 03:05:00,58.9,50.6,30.11,NW,305,0.0,-999.0,74,0.00,,,0.00,Wunderground v.1.12,2013-10-09 07:05:00,
2013-10-09 03:10:00,58.7,50.8,30.11,NW,305,0.0,-999.0,75,0.00,,,0.00,Wunderground v.1.12,2013-10-09 07:10:00,
2013-10-09 03:18:00,58.6,50.7,30.11,NW,305,0.0,-999.0,75,0.00,,,0.00,Wunderground v.1.12,2013-10-09 07:18:00,
2013-10-09 03:23:00,58.3,50.8,30.11,NW,305,0.0,-999.0,76,0.00,,,0.00,Wunderground v.1.12,2013-10-09 07:23:00,
2013-10-09 03:28:00,58.1,50.6,30.11,NW,305,0.0,-999.0,76,0.00,,,0.00,Wunderground v.1.12,2013-10-09 07:28:00,
2013-10-09 03:34:00,58.0,50.8,30.11,NW,305,0.0,-999.0,77,0.00,,,0.00,Wunderground v.1.12,2013-10-09 07:34:00,
2013-10-09 03:39:00,57.8,50.6,30.11,NW,305,0.0,-999.0,77,0.00,,,0.00,Wunderground v.1.12,2013-10-09 07:39:00,
2013-10-09 03:44:00,57.6,50.8,30.11,NW,305,0.0,-999.0,78,0.00,,,0.00,Wunderground v.1.12,2013-10-09 07:44:00,
2013-10-09 03:49:00,57.3,50.5,30.11,NW,305,0.0,-999.0,78,0.00,,,0.00,Wunderground v.1.12,2013-10-09 07:49:00,
2013-10-09 03:54:00,57.2,50.7,30.11,NW,305,0.0,-999.0,79,0.00,,,0.00,Wunderground v.1.12,2013-10-09 07:54:00,
2013-10-09 03:59:00,57.0,50.5,30.11,NW,305,0.0,-999.0,79,0.00,,,0.00,Wunderground v.1.12,2013-10-09 07:59:00,
2013-10-09 04:04:00,56.9,50.5,30.11,NW,305,0.0,-999.0,79,0.00,,,0.00,Wunderground v.1.12,2013-10-09 08:04:00,
2013-10-09 04:09:00,56.9,50.8,30.12,NW,305,0.0,-999.0,80,0.00,,,0.00,Wunderground v.1.12,2013-10-09 08:09:00,
2013-10-09 04:14:00,56.7,50.6,30.12,NW,305,0.0,-999.0,80,0.00,,,0.00,Wunderground v.1.12,2013-10-09 08:14:00,
2013-10-09 04:19:00,56.6,50.5,30.12,NW,305,0.0,-999.0,80,0.00,,,0.00,Wunderground v.1.12,2013-10-09 08:19:00,
2013-10-09 04:24:00,56.6,50.5,30.12,NW,305,0.0,-999.0,80,0.00,,,0.00,Wunderground v.1.12,2013-10-09 08:24:00,
2013-10-09 04:29:00,56.6,50.5,30.12,NW,305,0.0,-999.0,80,0.00,,,0.00,Wunderground v.1.12,2013-10-09 08:29:00,
2013-10-09 04:34:00,56.5,50.4,30.12,NE,37,0.0,-999.0,80,0.00,,,0.00,Wunderground v.1.12,2013-10-09 08:34:00,
2013-10-09 04:39:00,56.5,50.1,30.12,NE,40,0.0,-999.0,79,0.00,,,0.00,Wunderground v.1.12,2013-10-09 08:39:00,
2013-10-09 04:44:00,56.6,49.8,30.12,NE,41,0.0,-999.0,78,0.00,,,0.00,Wunderground v.1.12,2013-10-09 08:44:00,
2013-10-09 04:49:00,56.6,49.8,30.12,NE,41,0.0,-999.0,78,0.00,,,0.00,Wunderground v.1.12,2013-10-09 08:49:00,
2013-10-09 04:54:00,56.7,49.6,30.12,NE,41,0.0,-999.0,77,0.00,,,0.00,Wunderground v.1.12,2013-10-09 08:54:00,
2013-10-09 04:59:00,56.7,49.6,30.12,NE,47,0.0,-999.0,77,0.00,,,0.00,Wunderground v.1.12,2013-10-09 08:59:00,
2013-10-09 05:05:00,56.9,49.8,30.12,NE,47,0.0,-999.0,77,0.00,,,0.00,Wunderground v.1.12,2013-10-09 09:05:00,
2013-10-09 05:10:00,56.9,49.4,30.12,NE,47,0.0,-999.0,76,0.00,,,0.00,Wunderground v.1.12,2013-10-09 09:10:00,
2013-10-09 05:15:00,57.0,49.2,30.12,NE,47,0.0,-999.0,75,0.00,,,0.00,Wunderground v.1.12,2013-10-09 09:15:00,
2013-10-09 05:20:00,57.0,48.8,30.12,NE,44,0.0,-999.0,74,0.00,,,0.00,Wunderground v.1.12,2013-10-09 09:20:00,
2013-10-09 05:25:00,57.0,48.8,30.13,NE,44,0.0,-999.0,74,0.00,,,0.00,Wunderground v.1.12,2013-10-09 09:25:00,
2013-10-09 05:30:00,57.0,48.8,30.13,NE,44,0.0,-999.0,74,0.00,,,0.00,Wunderground v.1.12,2013-10-09 09:30:00,
2013-10-09 05:35:00,57.0,48.8,30.13,NE,44,0.0,-999.0,74,0.00,,,0.00,Wunderground v.1.12,2013-10-09 09:35:00,
2013-10-09 05:40:00,57.0,48.8,30.13,NE,44,0.0,-999.0,74,0.00,,,0.00,Wunderground v.1.12,2013-10-09 09:40:00,
2013-10-09 05:45:00,56.9,48.7,30.13,NE,44,0.0,-999.0,74,0.00,,,0.00,Wunderground v.1.12,2013-10-09 09:45:00,
2013-10-09 05:50:00,56.9,48.7,30.13,NE,44,0.0,-999.0,74,0.00,,,0.00,Wunderground v.1.12,2013-10-09 09:50:00,
2013-10-09 05:55:00,56.9,49.1,30.13,NE,44,0.0,-999.0,75,0.00,,,0.00,Wunderground v.1.12,2013-10-09 09:55:00,
2013-10-09 06:00:00,56.7,48.9,30.13,NE,43,0.0,-999.0,75,0.00,,,0.00,Wunderground v.1.12,2013-10-09 10:00:00,
2013-10-09 06:05:00,56.6,48.8,30.13,NE,40,0.0,-999.0,75,0.00,,,0.00,Wunderground v.1.12,2013-10-09 10:05:00,
2013-10-09 06:10:00,56.5,48.7,30.14,NE,40,0.0,-999.0,75,0.00,,,0.00,Wunderground v.1.12,2013-10-09 10:10:00,
2013-10-09 06:15:00,56.3,48.5,30.14,NE,41,0.0,-999.0,75,0.00,,,0.00,Wunderground v.1.12,2013-10-09 10:15:00,
2013-10-09 06:20:00,56.2,48.0,30.14,NNE,16,0.0,-999.0,74,0.00,,,0.00,Wunderground v.1.12,2013-10-09 10:20:00,
2013-10-09 06:25:00,56.0,47.5,30.14,NE,38,0.0,-999.0,73,0.00,,,0.00,Wunderground v.1.12,2013-10-09 10:25:00,
2013-10-09 06:30:00,56.0,47.5,30.14,NE,44,0.0,-999.0,73,0.00,,,0.00,Wunderground v.1.12,2013-10-09 10:30:00,
2013-10-09 06:35:00,55.9,46.6,30.14,ESE,113,0.0,-999.0,71,0.00,,,0.00,Wunderground v.1.12,2013-10-09 10:35:00,
2013-10-09 06:40:00,55.7,46.4,30.14,North,355,0.0,-999.0,71,0.00,,,0.00,Wunderground v.1.12,2013-10-09 10:40:00,
2013-10-09 06:45:00,55.7,45.7,30.14,NNE,19,0.0,-999.0,69,0.00,,,0.00,Wunderground v.1.12,2013-10-09 10:45:00,
2013-10-09 06:50:00,55.7,45.3,30.14,NNE,20,0.0,-999.0,68,0.00,,,0.00,Wunderground v.1.12,2013-10-09 10:50:00,
2013-10-09 06:55:00,55.6,45.2,30.14,ENE,67,0.0,-999.0,68,0.00,,,0.00,Wunderground v.1.12,2013-10-09 10:55:00,
2013-10-09 07:00:00,55.6,44.8,30.14,North,359,0.0,-999.0,67,0.00,,,0.00,Wunderground v.1.12,2013-10-09 11:00:00,
2013-10-09 07:05:00,55.6,44.8,30.14,NNE,23,0.0,-999.0,67,0.00,,,0.00,Wunderground v.1.12,2013-10-09 11:05:00,
2013-10-09 07:10:00,55.6,44.8,30.14,NNW,338,0.0,-999.0,67,0.00,,,0.00,Wunderground v.1.12,2013-10-09 11:10:00,
2013-10-09 07:15:00,55.6,44.8,30.14,NNW,338,0.0,-999.0,67,0.00,,,0.00,Wunderground v.1.12,2013-10-09 11:15:00,
2013-10-09 07:20:00,55.4,44.2,30.14,NNE,19,0.0,-999.0,66,0.00,,,0.00,Wunderground v.1.12,2013-10-09 11:20:00,
2013-10-09 07:25:00,55.4,44.6,30.14,ENE,70,0.0,-999.0,67,0.00,,,0.00,Wunderground v.1.12,2013-10-09 11:25:00,
2013-10-09 07:30:00,55.4,44.2,30.14,ENE,70,0.0,-999.0,66,0.00,,,0.00,Wunderground v.1.12,2013-10-09 11:30:00,
2013-10-09 07:35:00,55.3,44.1,30.14,ENE,70,0.0,-999.0,66,0.00,,,0.00,Wunderground v.1.12,2013-10-09 11:35:00,
2013-10-09 07:40:00,55.3,44.1,30.15,ENE,67,0.0,-999.0,66,0.00,,,0.00,Wunderground v.1.12,2013-10-09 11:40:00,
2013-10-09 07:45:00,55.3,43.7,30.15,NE,50,0.0,-999.0,65,0.00,,,0.00,Wunderground v.1.12,2013-10-09 11:45:00,
2013-10-09 07:51:00,55.1,43.9,30.15,WNW,297,0.0,-999.0,66,0.00,,,0.00,Wunderground v.1.12,2013-10-09 11:51:00,
2013-10-09 07:56:00,55.1,43.9,30.15,NE,36,0.0,-999.0,66,0.00,,,0.00,Wunderground v.1.12,2013-10-09 11:56:00,
2013-10-09 08:01:00,55.1,43.5,30.15,NE,36,0.0,-999.0,65,0.00,,,0.00,Wunderground v.1.12,2013-10-09 12:01:00,
2013-10-09 08:03:00,55.1,43.5,30.15,NE,36,0.0,-999.0,65,0.00,,,0.00,Wunderground v.1.12,2013-10-09 12:03:00,
2013-10-09 08:08:00,55.0,43.4,30.16,NNE,13,0.0,-999.0,65,0.00,,,0.00,Wunderground v.1.12,2013-10-09 12:08:00,
2013-10-09 08:13:00,55.0,43.4,30.16,NNE,20,0.0,-999.0,65,0.00,,,0.00,Wunderground v.1.12,2013-10-09 12:13:00,
2013-10-09 08:18:00,55.0,43.4,30.16,NE,37,0.0,-999.0,65,0.00,,,0.00,Wunderground v.1.12,2013-10-09 12:18:00,
2013-10-09 08:23:00,55.0,43.4,30.16,NE,44,0.0,-999.0,65,0.00,,,0.00,Wunderground v.1.12,2013-10-09 12:23:00,
2013-10-09 08:29:00,55.1,43.1,30.16,NE,43,0.0,-999.0,64,0.00,,,0.00,Wunderground v.1.12,2013-10-09 12:29:00,
2013-10-09 08:34:00,55.1,43.1,30.16,NNE,17,0.0,-999.0,64,0.00,,,0.00,Wunderground v.1.12,2013-10-09 12:34:00,
2013-10-09 08:39:00,55.3,42.9,30.17,NNE,27,0.0,-999.0,63,0.00,,,0.00,Wunderground v.1.12,2013-10-09 12:39:00,
2013-10-09 08:44:00,55.4,43.0,30.17,North,356,0.0,-999.0,63,0.00,,,0.00,Wunderground v.1.12,2013-10-09 12:44:00,
2013-10-09 08:49:00,55.7,43.3,30.17,ENE,77,0.0,-999.0,63,0.00,,,0.00,Wunderground v.1.12,2013-10-09 12:49:00,
2013-10-09 08:54:00,55.9,43.1,30.17,ENE,78,0.0,-999.0,62,0.00,,,0.00,Wunderground v.1.12,2013-10-09 12:54:00,
2013-10-09 08:59:00,56.2,43.3,30.17,ENE,74,0.0,-999.0,62,0.00,,,0.00,Wunderground v.1.12,2013-10-09 12:59:00,
2013-10-09 09:04:00,56.3,43.0,30.17,ENE,72,0.0,-999.0,61,0.00,,,0.00,Wunderground v.1.12,2013-10-09 13:04:00,
2013-10-09 09:09:00,56.6,42.9,30.17,NNE,22,0.0,-999.0,60,0.00,,,0.00,Wunderground v.1.12,2013-10-09 13:09:00,
2013-10-09 09:14:00,56.9,43.2,30.17,North,358,0.0,-999.0,60,0.00,,,0.00,Wunderground v.1.12,2013-10-09 13:14:00,
2013-10-09 09:19:00,57.0,42.8,30.17,ENE,67,0.0,-999.0,59,0.00,,,0.00,Wunderground v.1.12,2013-10-09 13:19:00,
2013-10-09 09:24:00,57.3,43.1,30.17,NE,48,0.0,-999.0,59,0.00,,,0.00,Wunderground v.1.12,2013-10-09 13:24:00,
2013-10-09 09:29:00,57.6,43.4,30.17,ENE,77,0.0,-999.0,59,0.00,,,0.00,Wunderground v.1.12,2013-10-09 13:29:00,
2013-10-09 09:34:00,58.0,43.7,30.17,NE,46,0.0,-999.0,59,0.00,,,0.00,Wunderground v.1.12,2013-10-09 13:34:00,
2013-10-09 09:39:00,58.3,44.0,30.17,North,359,0.0,-999.0,59,0.00,,,0.00,Wunderground v.1.12,2013-10-09 13:39:00,
2013-10-09 09:44:00,58.6,44.8,30.17,NE,43,0.0,-999.0,60,0.00,,,0.00,Wunderground v.1.12,2013-10-09 13:44:00,
2013-10-09 09:49:00,58.9,45.0,30.17,NE,50,0.0,-999.0,60,0.00,,,0.00,Wunderground v.1.12,2013-10-09 13:49:00,
2013-10-09 09:54:00,59.2,45.3,30.17,NNE,33,0.0,-999.0,60,0.00,,,0.00,Wunderground v.1.12,2013-10-09 13:54:00,
2013-10-09 10:00:00,59.6,46.1,30.17,NE,36,0.0,-999.0,61,0.00,,,0.00,Wunderground v.1.12,2013-10-09 14:00:00,
2013-10-09 10:05:00,60.1,46.6,30.17,ENE,62,0.0,-999.0,61,0.00,,,0.00,Wunderground v.1.12,2013-10-09 14:05:00,
2013-10-09 10:10:00,60.4,46.9,30.17,NNW,345,0.0,-999.0,61,0.00,,,0.00,Wunderground v.1.12,2013-10-09 14:10:00,
2013-10-09 10:15:00,60.7,47.2,30.17,NE,38,0.0,-999.0,61,0.00,,,0.00,Wunderground v.1.12,2013-10-09 14:15:00,
2013-10-09 10:20:00,61.3,47.7,30.17,East,95,0.0,-999.0,61,0.00,,,0.00,Wunderground v.1.12,2013-10-09 14:20:00,
2013-10-09 10:25:00,61.8,47.8,30.17,NNE,16,0.0,-999.0,60,0.00,,,0.00,Wunderground v.1.12,2013-10-09 14:25:00,
2013-10-09 10:30:00,62.3,48.2,30.17,NNW,348,1.0,-999.0,60,0.00,,,0.00,Wunderground v.1.12,2013-10-09 14:30:00,
2013-10-09 10:35:00,62.7,48.2,30.17,NE,37,0.0,-999.0,59,0.00,,,0.00,Wunderground v.1.12,2013-10-09 14:35:00,
2013-10-09 10:40:00,63.2,48.6,30.17,East,85,0.0,-999.0,59,0.00,,,0.00,Wunderground v.1.12,2013-10-09 14:40:00,
2013-10-09 10:45:00,63.7,48.6,30.17,ENE,78,1.0,-999.0,58,0.00,,,0.00,Wunderground v.1.12,2013-10-09 14:45:00,
2013-10-09 10:50:00,64.2,49.6,30.17,SSW,192,0.0,-999.0,59,0.00,,,0.00,Wunderground v.1.12,2013-10-09 14:50:00,
2013-10-09 10:55:00,64.5,49.8,30.17,NE,51,0.0,-999.0,59,0.00,,,0.00,Wunderground v.1.12,2013-10-09 14:55:00,
2013-10-09 11:00:00,64.8,49.2,30.17,ESE,113,0.0,-999.0,57,0.00,,,0.00,Wunderground v.1.12,2013-10-09 15:00:00,
2013-10-09 11:06:00,65.3,49.7,30.17,North,0,0.0,-999.0,57,0.00,,,0.00,Wunderground v.1.12,2013-10-09 15:06:00,
2013-10-09 11:11:00,65.6,49.5,30.17,NE,40,0.0,-999.0,56,0.00,,,0.00,Wunderground v.1.12,2013-10-09 15:11:00,
2013-10-09 11:16:00,66.0,49.8,30.17,NNE,33,0.0,-999.0,56,0.00,,,0.00,Wunderground v.1.12,2013-10-09 15:16:00,
2013-10-09 11:21:00,66.4,49.7,30.17,East,79,0.0,-999.0,55,0.00,,,0.00,Wunderground v.1.12,2013-10-09 15:21:00,
2013-10-09 11:26:00,66.9,50.7,30.17,NE,55,2.0,-999.0,56,0.00,,,0.00,Wunderground v.1.12,2013-10-09 15:26:00,
2013-10-09 11:31:00,67.4,50.2,30.17,NE,44,3.0,-999.0,54,0.00,,,0.00,Wunderground v.1.12,2013-10-09 15:31:00,
2013-10-09 11:36:00,67.6,49.9,30.17,ENE,72,0.0,-999.0,53,0.00,,,0.00,Wunderground v.1.12,2013-10-09 15:36:00,
2013-10-09 11:41:00,68.1,50.3,30.16,South,180,0.0,-999.0,53,0.00,,,0.00,Wunderground v.1.12,2013-10-09 15:41:00,
2013-10-09 11:46:00,68.4,51.1,30.16,ENE,75,0.0,-999.0,54,0.00,,,0.00,Wunderground v.1.12,2013-10-09 15:46:00,
2013-10-09 11:51:00,69.1,50.7,30.16,NNW,331,0.0,-999.0,52,0.00,,,0.00,Wunderground v.1.12,2013-10-09 15:51:00,
2013-10-09 11:56:00,69.6,50.7,30.16,ENE,60,0.0,-999.0,51,0.00,,,0.00,Wunderground v.1.12,2013-10-09 15:56:00,
2013-10-09 12:01:00,70.1,51.1,30.16,NE,44,0.0,-999.0,51,0.00,,,0.00,Wunderground v.1.12,2013-10-09 16:01:00,
2013-10-09 12:06:00,70.3,49.1,30.16,ENE,57,4.0,-999.0,47,0.00,,,0.00,Wunderground v.1.12,2013-10-09 16:06:00,
2013-10-09 12:11:00,70.8,49.6,30.16,SE,133,1.0,-999.0,47,0.00,,,0.00,Wunderground v.1.12,2013-10-09 16:11:00,
2013-10-09 12:16:00,70.9,48.5,30.16,NE,41,0.0,-999.0,45,0.00,,,0.00,Wunderground v.1.12,2013-10-09 16:16:00,
2013-10-09 12:21:00,71.3,48.9,30.16,NW,326,0.0,-999.0,45,0.00,,,0.00,Wunderground v.1.12,2013-10-09 16:21:00,
2013-10-09 12:26:00,71.3,48.9,30.16,North,7,0.0,-999.0,45,0.00,,,0.00,Wunderground v.1.12,2013-10-09 16:26:00,
2013-10-09 12:31:00,71.3,48.9,30.16,North,7,0.0,-999.0,45,0.00,,,0.00,Wunderground v.1.12,2013-10-09 16:31:00,
2013-10-09 12:36:00,72.1,49.6,30.16,East,96,0.0,-999.0,45,0.00,,,0.00,Wunderground v.1.12,2013-10-09 16:36:00,
2013-10-09 12:41:00,72.1,49.6,30.15,East,91,0.0,-999.0,45,0.00,,,0.00,Wunderground v.1.12,2013-10-09 16:41:00,
2013-10-09 12:46:00,73.2,49.4,30.15,ENE,61,0.0,-999.0,43,0.00,,,0.00,Wunderground v.1.12,2013-10-09 16:46:00,
2013-10-09 12:51:00,73.5,47.0,30.15,NNE,29,0.0,-999.0,39,0.00,,,0.00,Wunderground v.1.12,2013-10-09 16:51:00,
2013-10-09 12:56:00,73.9,47.4,30.15,ESE,110,0.0,-999.0,39,0.00,,,0.00,Wunderground v.1.12,2013-10-09 16:56:00,
2013-10-09 13:02:00,74.2,47.6,30.15,North,2,0.0,-999.0,39,0.00,,,0.00,Wunderground v.1.12,2013-10-09 17:02:00,
2013-10-09 13:07:00,74.6,47.3,30.15,North,3,0.0,-999.0,38,0.00,,,0.00,Wunderground v.1.12,2013-10-09 17:07:00,
2013-10-09 13:12:00,74.7,48.1,30.14,NW,315,0.0,-999.0,39,0.00,,,0.00,Wunderground v.1.12,2013-10-09 17:12:00,
2013-10-09 13:17:00,75.1,49.1,30.14,North,358,0.0,-999.0,40,0.00,,,0.00,Wunderground v.1.12,2013-10-09 17:17:00,
2013-10-09 13:22:00,75.3,50.0,30.14,South,177,0.0,-999.0,41,0.00,,,0.00,Wunderground v.1.12,2013-10-09 17:22:00,
2013-10-09 13:27:00,75.3,47.2,30.13,SE,129,0.0,-999.0,37,0.00,,,0.00,Wunderground v.1.12,2013-10-09 17:27:00,
2013-10-09 13:32:00,75.6,48.9,30.13,ENE,58,0.0,-999.0,39,0.00,,,0.00,Wunderground v.1.12,2013-10-09 17:32:00,
2013-10-09 13:37:00,75.8,49.1,30.13,South,171,0.0,-999.0,39,0.00,,,0.00,Wunderground v.1.12,2013-10-09 17:37:00,
2013-10-09 13:42:00,75.8,50.4,30.12,SSE,158,0.0,-999.0,41,0.00,,,0.00,Wunderground v.1.12,2013-10-09 17:42:00,
2013-10-09 13:47:00,76.0,48.6,30.12,SE,142,0.0,-999.0,38,0.00,,,0.00,Wunderground v.1.12,2013-10-09 17:47:00,
2013-10-09 13:52:00,76.1,48.6,30.12,ENE,61,0.0,-999.0,38,0.00,,,0.00,Wunderground v.1.12,2013-10-09 17:52:00,
2013-10-09 13:57:00,76.3,48.8,30.12,ENE,65,0.0,-999.0,38,0.00,,,0.00,Wunderground v.1.12,2013-10-09 17:57:00,
2013-10-09 14:02:00,76.3,48.8,30.12,NE,50,0.0,-999.0,38,0.00,,,0.00,Wunderground v.1.12,2013-10-09 18:02:00,
2013-10-09 14:07:00,76.3,49.5,30.12,SSE,164,0.0,-999.0,39,0.00,,,0.00,Wunderground v.1.12,2013-10-09 18:07:00,
2013-10-09 14:12:00,76.0,48.6,30.11,ENE,65,0.0,-999.0,38,0.00,,,0.00,Wunderground v.1.12,2013-10-09 18:12:00,
2013-10-09 14:17:00,76.0,49.2,30.11,NNE,13,0.0,-999.0,39,0.00,,,0.00,Wunderground v.1.12,2013-10-09 18:17:00,
2013-10-09 14:22:00,75.8,49.1,30.11,East,88,0.0,-999.0,39,0.00,,,0.00,Wunderground v.1.12,2013-10-09 18:22:00,
2013-10-09 14:27:00,75.4,49.4,30.11,East,88,0.0,-999.0,40,0.00,,,0.00,Wunderground v.1.12,2013-10-09 18:27:00,
2013-10-09 14:32:00,75.1,48.4,30.11,East,88,0.0,-999.0,39,0.00,,,0.00,Wunderground v.1.12,2013-10-09 18:32:00,
2013-10-09 14:37:00,74.7,49.4,30.11,NNE,29,0.0,-999.0,41,0.00,,,0.00,Wunderground v.1.12,2013-10-09 18:37:00,
2013-10-09 14:42:00,74.4,49.2,30.10,NNE,27,0.0,-999.0,41,0.00,,,0.00,Wunderground v.1.12,2013-10-09 18:42:00,
2013-10-09 14:47:00,74.2,49.0,30.10,NNE,29,0.0,-999.0,41,0.00,,,0.00,Wunderground v.1.12,2013-10-09 18:47:00,
2013-10-09 14:53:00,73.9,48.7,30.10,NNE,29,0.0,-999.0,41,0.00,,,0.00,Wunderground v.1.12,2013-10-09 18:53:00,
2013-10-09 14:58:00,73.5,48.4,30.10,East,81,0.0,-999.0,41,0.00,,,0.00,Wunderground v.1.12,2013-10-09 18:58:00,
2013-10-09 15:03:00,73.2,50.0,30.10,ESE,109,0.0,-999.0,44,0.00,,,0.00,Wunderground v.1.12,2013-10-09 19:03:00,
2013-10-09 15:09:00,72.8,49.0,30.09,ESE,109,0.0,-999.0,43,0.00,,,0.00,Wunderground v.1.12,2013-10-09 19:09:00,
2013-10-09 15:14:00,72.7,48.9,30.09,ESE,109,0.0,-999.0,43,0.00,,,0.00,Wunderground v.1.12,2013-10-09 19:14:00,
2013-10-09 15:19:00,72.7,49.5,30.09,ESE,106,0.0,-999.0,44,0.00,,,0.00,Wunderground v.1.12,2013-10-09 19:19:00,
2013-10-09 15:24:00,72.5,49.9,30.09,ESE,106,0.0,-999.0,45,0.00,,,0.00,Wunderground v.1.12,2013-10-09 19:24:00,
2013-10-09 15:29:00,72.1,50.8,30.09,SSE,153,0.0,-999.0,47,0.00,,,0.00,Wunderground v.1.12,2013-10-09 19:29:00,
2013-10-09 15:34:00,72.0,50.1,30.09,NNE,13,0.0,-999.0,46,0.00,,,0.00,Wunderground v.1.12,2013-10-09 19:34:00,
2013-10-09 15:39:00,71.8,49.3,30.09,NNE,12,0.0,-999.0,45,0.00,,,0.00,Wunderground v.1.12,2013-10-09 19:39:00,
2013-10-09 15:44:00,71.6,49.7,30.09,NNE,14,0.0,-999.0,46,0.00,,,0.00,Wunderground v.1.12,2013-10-09 19:44:00,
2013-10-09 15:49:00,71.6,50.3,30.09,NNE,14,0.0,-999.0,47,0.00,,,0.00,Wunderground v.1.12,2013-10-09 19:49:00,
2013-10-09 15:54:00,71.5,51.9,30.09,NNE,13,0.0,-999.0,50,0.00,,,0.00,Wunderground v.1.12,2013-10-09 19:54:00,
2013-10-09 15:59:00,71.3,50.6,30.09,NNE,17,0.0,-999.0,48,0.00,,,0.00,Wunderground v.1.12,2013-10-09 19:59:00,
2013-10-09 16:04:00,71.3,51.7,30.09,NNE,17,0.0,-999.0,50,0.00,,,0.00,Wunderground v.1.12,2013-10-09 20:04:00,
2013-10-09 16:09:00,70.9,51.9,30.08,ESE,119,0.0,-999.0,51,0.00,,,0.00,Wunderground v.1.12,2013-10-09 20:09:00,
2013-10-09 16:14:00,70.9,52.9,30.08,ESE,119,0.0,-999.0,53,0.00,,,0.00,Wunderground v.1.12,2013-10-09 20:14:00,
2013-10-09 16:19:00,70.8,51.8,30.08,ESE,119,0.0,-999.0,51,0.00,,,0.00,Wunderground v.1.12,2013-10-09 20:19:00,
2013-10-09 16:24:00,70.6,53.6,30.08,ESE,119,0.0,-999.0,55,0.00,,,0.00,Wunderground v.1.12,2013-10-09 20:24:00,
2013-10-09 16:29:00,70.4,53.5,30.08,ESE,119,0.0,-999.0,55,0.00,,,0.00,Wunderground v.1.12,2013-10-09 20:29:00,
2013-10-09 16:34:00,70.3,51.8,30.08,ESE,119,0.0,-999.0,52,0.00,,,0.00,Wunderground v.1.12,2013-10-09 20:34:00,
2013-10-09 16:39:00,70.3,53.4,30.08,ESE,119,0.0,-999.0,55,0.00,,,0.00,Wunderground v.1.12,2013-10-09 20:39:00,
2013-10-09 16:44:00,70.1,53.7,30.08,ESE,119,0.0,-999.0,56,0.00,,,0.00,Wunderground v.1.12,2013-10-09 20:44:00,
2013-10-09 16:49:00,70.1,53.7,30.08,ESE,119,0.0,-999.0,56,0.00,,,0.00,Wunderground v.1.12,2013-10-09 20:49:00,
2013-10-09 16:54:00,69.9,53.5,30.08,ESE,119,0.0,-999.0,56,0.00,,,0.00,Wunderground v.1.12,2013-10-09 20:54:00,
2013-10-09 16:59:00,69.8,55.3,30.08,ESE,119,0.0,-999.0,60,0.00,,,0.00,Wunderground v.1.12,2013-10-09 20:59:00,
2013-10-09 17:04:00,69.8,55.3,30.08,ESE,119,0.0,-999.0,60,0.00,,,0.00,Wunderground v.1.12,2013-10-09 21:04:00,
2013-10-09 17:09:00,69.4,55.4,30.08,ESE,119,0.0,-999.0,61,0.00,,,0.00,Wunderground v.1.12,2013-10-09 21:09:00,
2013-10-09 17:14:00,69.4,55.4,30.08,ESE,119,0.0,-999.0,61,0.00,,,0.00,Wunderground v.1.12,2013-10-09 21:14:00,
2013-10-09 17:19:00,69.3,55.7,30.08,ESE,119,0.0,-999.0,62,0.00,,,0.00,Wunderground v.1.12,2013-10-09 21:19:00,
2013-10-09 17:24:00,69.1,56.0,30.08,ESE,119,0.0,-999.0,63,0.00,,,0.00,Wunderground v.1.12,2013-10-09 21:24:00,
2013-10-09 17:29:00,68.9,54.9,30.08,ESE,119,0.0,-999.0,61,0.00,,,0.00,Wunderground v.1.12,2013-10-09 21:29:00,
2013-10-09 17:34:00,68.8,55.2,30.08,ESE,119,0.0,-999.0,62,0.00,,,0.00,Wunderground v.1.12,2013-10-09 21:34:00,
2013-10-09 17:39:00,68.6,55.5,30.08,ESE,119,0.0,-999.0,63,0.00,,,0.00,Wunderground v.1.12,2013-10-09 21:39:00,
2013-10-09 17:44:00,68.4,55.7,30.08,ESE,119,0.0,-999.0,64,0.00,,,0.00,Wunderground v.1.12,2013-10-09 21:44:00,
2013-10-09 17:50:00,68.4,55.7,30.08,ESE,119,0.0,-999.0,64,0.00,,,0.00,Wunderground v.1.12,2013-10-09 21:50:00,
2013-10-09 17:55:00,68.3,56.1,30.08,ESE,119,0.0,-999.0,65,0.00,,,0.00,Wunderground v.1.12,2013-10-09 21:55:00,
2013-10-09 18:00:00,68.1,55.9,30.08,ESE,119,0.0,-999.0,65,0.00,,,0.00,Wunderground v.1.12,2013-10-09 22:00:00,
2013-10-09 18:05:00,67.9,55.7,30.08,ESE,119,0.0,-999.0,65,0.00,,,0.00,Wunderground v.1.12,2013-10-09 22:05:00,
2013-10-09 18:10:00,67.8,56.0,30.08,ESE,119,0.0,-999.0,66,0.00,,,0.00,Wunderground v.1.12,2013-10-09 22:10:00,
2013-10-09 18:16:00,67.6,55.8,30.08,ESE,119,0.0,-999.0,66,0.00,,,0.00,Wunderground v.1.12,2013-10-09 22:16:00,
2013-10-09 18:21:00,67.4,56.1,30.08,ESE,119,0.0,-999.0,67,0.00,,,0.00,Wunderground v.1.12,2013-10-09 22:21:00,
2013-10-09 18:26:00,67.3,56.4,30.08,ESE,119,0.0,-999.0,68,0.00,,,0.00,Wunderground v.1.12,2013-10-09 22:26:00,
2013-10-09 18:31:00,67.1,56.2,30.08,ESE,119,0.0,-999.0,68,0.00,,,0.00,Wunderground v.1.12,2013-10-09 22:31:00,
2013-10-09 18:36:00,66.9,56.4,30.08,ESE,119,0.0,-999.0,69,0.00,,,0.00,Wunderground v.1.12,2013-10-09 22:36:00,
2013-10-09 18:41:00,66.6,56.1,30.08,ESE,119,0.0,-999.0,69,0.00,,,0.00,Wunderground v.1.12,2013-10-09 22:41:00,
2013-10-09 18:46:00,66.4,56.3,30.08,ESE,119,0.0,-999.0,70,0.00,,,0.00,Wunderground v.1.12,2013-10-09 22:46:00,
2013-10-09 18:51:00,66.3,56.2,30.08,ESE,119,0.0,-999.0,70,0.00,,,0.00,Wunderground v.1.12,2013-10-09 22:51:00,
2013-10-09 18:56:00,66.1,56.0,30.08,ESE,119,0.0,-999.0,70,0.00,,,0.00,Wunderground v.1.12,2013-10-09 22:56:00,
2013-10-09 19:01:00,66.0,56.3,30.08,ESE,119,0.0,-999.0,71,0.00,,,0.00,Wunderground v.1.12,2013-10-09 23:01:00,
2013-10-09 19:06:00,65.8,56.1,30.08,ESE,119,0.0,-999.0,71,0.00,,,0.00,Wunderground v.1.12,2013-10-09 23:06:00,
2013-10-09 19:11:00,65.6,55.9,30.08,ESE,119,0.0,-999.0,71,0.00,,,0.00,Wunderground v.1.12,2013-10-09 23:11:00,
2013-10-09 19:16:00,65.5,55.8,30.08,ESE,119,0.0,-999.0,71,0.00,,,0.00,Wunderground v.1.12,2013-10-09 23:16:00,
2013-10-09 19:21:00,65.2,55.6,30.08,ESE,119,0.0,-999.0,71,0.00,,,0.00,Wunderground v.1.12,2013-10-09 23:21:00,
2013-10-09 19:26:00,65.0,55.4,30.08,ESE,119,0.0,-999.0,71,0.00,,,0.00,Wunderground v.1.12,2013-10-09 23:26:00,
2013-10-09 19:31:00,64.8,55.6,30.08,ESE,119,0.0,-999.0,72,0.00,,,0.00,Wunderground v.1.12,2013-10-09 23:31:00,
2013-10-09 19:36:00,64.5,55.3,30.08,ESE,119,0.0,-999.0,72,0.00,,,0.00,Wunderground v.1.12,2013-10-09 23:36:00,
2013-10-09 19:41:00,64.3,55.1,30.08,ESE,119,0.0,-999.0,72,0.00,,,0.00,Wunderground v.1.12,2013-10-09 23:41:00,
2013-10-09 19:46:00,64.2,55.4,30.08,ESE,119,0.0,-999.0,73,0.00,,,0.00,Wunderground v.1.12,2013-10-09 23:46:00,
2013-10-09 19:51:00,64.0,55.2,30.08,ESE,119,0.0,-999.0,73,0.00,,,0.00,Wunderground v.1.12,2013-10-09 23:51:00,
2013-10-09 19:56:00,63.7,55.3,30.09,ESE,119,0.0,-999.0,74,0.00,,,0.00,Wunderground v.1.12,2013-10-09 23:56:00,
2013-10-09 20:01:00,63.5,55.1,30.09,ESE,119,0.0,-999.0,74,0.00,,,0.00,Wunderground v.1.12,2013-10-10 00:01:00,
2013-10-09 20:06:00,63.4,55.0,30.09,ESE,119,0.0,-999.0,74,0.00,,,0.00,Wunderground v.1.12,2013-10-10 00:06:00,
2013-10-09 20:11:00,63.1,55.0,30.09,ESE,119,0.0,-999.0,75,0.00,,,0.00,Wunderground v.1.12,2013-10-10 00:11:00,
2013-10-09 20:16:00,62.9,55.2,30.09,ESE,119,0.0,-999.0,76,0.00,,,0.00,Wunderground v.1.12,2013-10-10 00:16:00,
2013-10-09 20:21:00,62.7,55.0,30.09,ESE,119,0.0,-999.0,76,0.00,,,0.00,Wunderground v.1.12,2013-10-10 00:21:00,
2013-10-09 20:26:00,62.4,55.1,30.09,ESE,119,0.0,-999.0,77,0.00,,,0.00,Wunderground v.1.12,2013-10-10 00:26:00,
2013-10-09 20:31:00,62.3,55.0,30.09,ESE,119,0.0,-999.0,77,0.00,,,0.00,Wunderground v.1.12,2013-10-10 00:31:00,
2013-10-09 20:36:00,62.1,54.8,30.09,ESE,119,0.0,-999.0,77,0.00,,,0.00,Wunderground v.1.12,2013-10-10 00:36:00,
2013-10-09 20:41:00,62.0,55.1,30.09,ESE,119,0.0,-999.0,78,0.00,,,0.00,Wunderground v.1.12,2013-10-10 00:41:00,
2013-10-09 20:46:00,61.8,54.9,30.09,ESE,119,0.0,-999.0,78,0.00,,,0.00,Wunderground v.1.12,2013-10-10 00:46:00,
2013-10-09 20:51:00,61.6,54.7,30.09,ESE,119,0.0,-999.0,78,0.00,,,0.00,Wunderground v.1.12,2013-10-10 00:51:00,
2013-10-09 20:56:00,61.5,54.9,30.09,ESE,119,0.0,-999.0,79,0.00,,,0.00,Wunderground v.1.12,2013-10-10 00:56:00,
2013-10-09 21:02:00,61.3,54.7,30.09,ESE,119,0.0,-999.0,79,0.00,,,0.00,Wunderground v.1.12,2013-10-10 01:02:00,
2013-10-09 21:07:00,61.2,54.6,30.09,ESE,119,0.0,-999.0,79,0.00,,,0.00,Wunderground v.1.12,2013-10-10 01:07:00,
2013-10-09 21:12:00,61.0,54.4,30.09,ESE,119,0.0,-999.0,79,0.00,,,0.00,Wunderground v.1.12,2013-10-10 01:12:00,
2013-10-09 21:17:00,60.9,54.7,30.09,ESE,119,0.0,-999.0,80,0.00,,,0.00,Wunderground v.1.12,2013-10-10 01:17:00,
2013-10-09 21:22:00,60.7,54.5,30.09,ESE,119,0.0,-999.0,80,0.00,,,0.00,Wunderground v.1.12,2013-10-10 01:22:00,
2013-10-09 21:27:00,60.5,54.6,30.09,ESE,119,0.0,-999.0,81,0.00,,,0.00,Wunderground v.1.12,2013-10-10 01:27:00,
2013-10-09 21:32:00,60.4,54.5,30.09,ESE,119,0.0,-999.0,81,0.00,,,0.00,Wunderground v.1.12,2013-10-10 01:32:00,
2013-10-09 21:37:00,60.4,54.5,30.09,ESE,119,0.0,-999.0,81,0.00,,,0.00,Wunderground v.1.12,2013-10-10 01:37:00,
2013-10-09 21:42:00,60.2,54.3,30.10,ESE,119,0.0,-999.0,81,0.00,,,0.00,Wunderground v.1.12,2013-10-10 01:42:00,
2013-10-09 21:47:00,60.1,54.2,30.10,ESE,119,0.0,-999.0,81,0.00,,,0.00,Wunderground v.1.12,2013-10-10 01:47:00,
2013-10-09 21:52:00,59.9,54.1,30.10,ESE,119,0.0,-999.0,81,0.00,,,0.00,Wunderground v.1.12,2013-10-10 01:52:00,
2013-10-09 21:57:00,59.9,54.4,30.10,ESE,119,0.0,-999.0,82,0.00,,,0.00,Wunderground v.1.12,2013-10-10 01:57:00,
2013-10-09 22:02:00,59.8,54.3,30.10,ESE,119,0.0,-999.0,82,0.00,,,0.00,Wunderground v.1.12,2013-10-10 02:02:00,
2013-10-09 22:07:00,59.6,54.4,30.10,ESE,119,0.0,-999.0,83,0.00,,,0.00,Wunderground v.1.12,2013-10-10 02:07:00,
2013-10-09 22:12:00,59.6,54.4,30.10,ESE,119,0.0,-999.0,83,0.00,,,0.00,Wunderground v.1.12,2013-10-10 02:12:00,
2013-10-09 22:17:00,59.5,54.3,30.10,ESE,119,0.0,-999.0,83,0.00,,,0.00,Wunderground v.1.12,2013-10-10 02:17:00,
2013-10-09 22:22:00,59.3,54.1,30.10,ESE,119,0.0,-999.0,83,0.00,,,0.00,Wunderground v.1.12,2013-10-10 02:22:00,
2013-10-09 22:27:00,59.3,54.1,30.10,ESE,119,0.0,-999.0,83,0.00,,,0.00,Wunderground v.1.12,2013-10-10 02:27:00,
2013-10-09 22:32:00,59.2,54.0,30.10,ESE,119,0.0,-999.0,83,0.00,,,0.00,Wunderground v.1.12,2013-10-10 02:32:00,
2013-10-09 22:37:00,59.2,54.0,30.10,ESE,119,0.0,-999.0,83,0.00,,,0.00,Wunderground v.1.12,2013-10-10 02:37:00,
2013-10-09 22:42:00,59.0,54.2,30.11,ESE,119,0.0,-999.0,84,0.00,,,0.00,Wunderground v.1.12,2013-10-10 02:42:00,
2013-10-09 22:48:00,58.9,54.1,30.11,ESE,119,0.0,-999.0,84,0.00,,,0.00,Wunderground v.1.12,2013-10-10 02:48:00,
2013-10-09 22:53:00,58.9,54.1,30.11,ESE,119,0.0,-999.0,84,0.00,,,0.00,Wunderground v.1.12,2013-10-10 02:53:00,
2013-10-09 22:59:00,58.7,53.9,30.11,ESE,119,0.0,-999.0,84,0.00,,,0.00,Wunderground v.1.12,2013-10-10 02:59:00,
2013-10-09 23:04:00,58.6,53.8,30.11,ESE,119,0.0,-999.0,84,0.00,,,0.00,Wunderground v.1.12,2013-10-10 03:04:00,
2013-10-09 23:09:00,58.6,53.8,30.10,ESE,119,0.0,-999.0,84,0.00,,,0.00,Wunderground v.1.12,2013-10-10 03:09:00,
2013-10-09 23:14:00,58.4,53.6,30.10,ESE,119,0.0,-999.0,84,0.00,,,0.00,Wunderground v.1.12,2013-10-10 03:14:00,
2013-10-09 23:19:00,58.4,53.6,30.10,ESE,119,0.0,-999.0,84,0.00,,,0.00,Wunderground v.1.12,2013-10-10 03:19:00,
2013-10-09 23:24:00,58.3,53.8,30.10,ESE,119,0.0,-999.0,85,0.00,,,0.00,Wunderground v.1.12,2013-10-10 03:24:00,
2013-10-09 23:29:00,58.3,53.8,30.10,ESE,119,0.0,-999.0,85,0.00,,,0.00,Wunderground v.1.12,2013-10-10 03:29:00,
2013-10-09 23:34:00,58.1,53.6,30.10,ESE,119,0.0,-999.0,85,0.00,,,0.00,Wunderground v.1.12,2013-10-10 03:34:00,
2013-10-09 23:39:00,58.0,53.5,30.10,ESE,119,0.0,-999.0,85,0.00,,,0.00,Wunderground v.1.12,2013-10-10 03:39:00,
2013-10-09 23:44:00,58.0,53.5,30.10,ESE,119,0.0,-999.0,85,0.00,,,0.00,Wunderground v.1.12,2013-10-10 03:44:00,
2013-10-09 23:49:00,57.8,53.3,30.10,ESE,118,0.0,-999.0,85,0.00,,,0.00,Wunderground v.1.12,2013-10-10 03:49:00,
2013-10-09 23:54:00,57.6,53.1,30.10,ESE,118,0.0,-999.0,85,0.00,,,0.00,Wunderground v.1.12,2013-10-10 03:54:00,
2013-10-09 23:59:00,57.6,53.1,30.10,ESE,118,0.0,-999.0,85,0.00,,,0.00,Wunderground v.1.12,2013-10-10 03:59:00,